Location: Olsztyn
(53.7767°N, 20.4765°E)
Time: 11:18:26
(UTC+02:00)

Explorer 7 - Visible Passes

Search period start: 15 July 2024 00:00
Search period end: 25 July 2024 00:00
Orbit: 465 x 619 km, 50.3° (Epoch: 14 July)

Date Brightness Start Highest point End Pass type
(mag) Time Alt. Az. Time Alt. Az. Time Alt. Az.
15 Jul 8.7 02:42:17 13° S 02:44:57 20° SE 02:48:13 10° E visible
16 Jul 8.4 02:34:15 15° S 02:36:45 23° SSE 02:40:18 10° E visible
17 Jul 8.2 02:26:08 17° SSW 02:28:32 27° SSE 02:32:19 10° E visible
18 Jul 8.0 02:17:57 19° SSW 02:20:18 30° SSE 02:24:15 10° E visible
19 Jul 9.2 00:34:15 12° SE 00:34:15 12° SE 00:35:13 10° ESE visible
19 Jul 7.8 02:09:42 21° SSW 02:12:04 34° SSE 02:16:09 10° E visible
20 Jul 9.0 00:25:55 14° SE 00:25:55 14° SE 00:27:32 10° ESE visible
20 Jul 7.6 02:01:22 21° SW 02:03:49 38° SSE 02:08:00 10° E visible
20 Jul 7.2 03:38:43 10° WSW 03:43:10 56° S 03:47:31 10° ESE visible
21 Jul 8.7 00:17:30 17° SE 00:17:30 17° SE 00:19:39 10° E visible
21 Jul 7.5 01:52:56 21° SW 01:55:33 42° SSE 01:59:49 10° E visible
21 Jul 7.2 03:30:28 10° W 03:34:56 56° S 03:39:17 10° ESE visible
22 Jul 8.5 00:08:58 20° SE 00:08:58 20° SE 00:11:37 10° E visible
22 Jul 7.3 01:44:23 20° SW 01:47:16 46° SSE 01:51:36 10° E visible
22 Jul 7.2 03:22:12 10° W 03:26:41 55° S 03:31:02 10° ESE visible
23 Jul 8.2 00:00:15 24° SE 00:00:15 24° SE 00:03:30 10° E visible
23 Jul 7.2 01:35:40 17° WSW 01:38:58 49° SSE 01:43:20 10° E visible
23 Jul 7.2 03:13:56 10° W 03:18:23 53° S 03:22:44 10° ESE visible
23 Jul 7.9 23:51:13 27° SSE 23:51:27 28° SSE 23:55:19 10° E visible
24 Jul 7.1 01:26:35 12° WSW 01:30:38 52° S 01:35:03 10° E visible
24 Jul 7.2 03:05:39 10° W 03:10:04 50° S 03:14:24 10° ESE visible
24 Jul 7.7 23:41:15 23° SSW 23:43:03 31° SSE 23:47:04 10° E visible
